Year,Month,Day,Hour,Minute,Value (Times are PST for temperature in C)
2007,06,19,00,00,9.80
2007,06,19,00,01,9.70
2007,06,19,00,02,9.70
2007,06,19,00,03,9.70
2007,06,19,00,04,9.70
2007,06,19,00,05,9.70
2007,06,19,00,06,9.60
2007,06,19,00,07,9.60
2007,06,19,00,08,9.60
2007,06,19,00,09,9.60
2007,06,19,00,10,9.50
2007,06,19,00,11,9.50
2007,06,19,00,12,9.50
2007,06,19,00,13,9.50
2007,06,19,00,14,9.50
2007,06,19,00,15,9.50
2007,06,19,00,16,9.50
2007,06,19,00,17,9.50
2007,06,19,00,18,9.50
2007,06,19,00,19,9.50
2007,06,19,00,20,9.50
2007,06,19,00,21,9.50
2007,06,19,00,22,9.50
2007,06,19,00,23,9.60
2007,06,19,00,24,9.60
2007,06,19,00,25,9.60
2007,06,19,00,26,9.60
2007,06,19,00,27,9.60
2007,06,19,00,28,9.60
2007,06,19,00,29,9.60
2007,06,19,00,30,9.60
2007,06,19,00,31,9.60
2007,06,19,00,32,9.50
2007,06,19,00,33,9.50
2007,06,19,00,34,9.40
2007,06,19,00,35,9.40
2007,06,19,00,36,9.30
2007,06,19,00,37,9.20
2007,06,19,00,38,9.20
2007,06,19,00,39,9.20
2007,06,19,00,40,9.20
2007,06,19,00,41,9.10
2007,06,19,00,42,9.10
2007,06,19,00,43,9.00
2007,06,19,00,44,9.00
2007,06,19,00,45,9.00
2007,06,19,00,46,9.00
2007,06,19,00,47,9.00
2007,06,19,00,48,9.00
2007,06,19,00,49,9.00
2007,06,19,00,50,9.00
2007,06,19,00,51,9.00
2007,06,19,00,52,9.00
2007,06,19,00,53,9.00
2007,06,19,00,54,9.00
2007,06,19,00,55,9.10
2007,06,19,00,56,9.10
2007,06,19,00,57,9.10
2007,06,19,00,58,9.10
2007,06,19,00,59,9.20
2007,06,19,01,00,9.20
2007,06,19,01,01,9.20
2007,06,19,01,02,9.20
2007,06,19,01,03,9.20
2007,06,19,01,04,9.20
2007,06,19,01,05,9.30
2007,06,19,01,06,9.30
2007,06,19,01,07,9.30
2007,06,19,01,08,9.30
2007,06,19,01,09,9.30
2007,06,19,01,10,9.20
2007,06,19,01,11,9.20
2007,06,19,01,12,9.20
2007,06,19,01,13,9.20
2007,06,19,01,14,9.20
2007,06,19,01,15,9.20
2007,06,19,01,16,9.20
2007,06,19,01,17,9.20
2007,06,19,01,18,9.20
2007,06,19,01,19,9.20
2007,06,19,01,20,9.20
2007,06,19,01,21,9.20
2007,06,19,01,22,9.20
2007,06,19,01,23,9.20
2007,06,19,01,24,9.10
2007,06,19,01,25,9.10
2007,06,19,01,26,9.10
2007,06,19,01,27,9.10
2007,06,19,01,28,9.00
2007,06,19,01,29,9.00
2007,06,19,01,30,9.00
2007,06,19,01,31,9.00
2007,06,19,01,32,9.00
2007,06,19,01,33,9.00
2007,06,19,01,34,9.00
2007,06,19,01,35,9.00
2007,06,19,01,36,9.00
2007,06,19,01,37,9.00
2007,06,19,01,38,9.00
2007,06,19,01,39,9.00
2007,06,19,01,40,9.00
2007,06,19,01,41,8.90
2007,06,19,01,42,8.90
2007,06,19,01,43,8.80
2007,06,19,01,44,8.80
2007,06,19,01,45,8.80
2007,06,19,01,46,8.70
2007,06,19,01,47,8.70
2007,06,19,01,48,8.70
2007,06,19,01,49,8.70
2007,06,19,01,50,8.70
2007,06,19,01,51,8.70
2007,06,19,01,52,8.70
2007,06,19,01,53,8.70
2007,06,19,01,54,8.70
2007,06,19,01,55,8.70
2007,06,19,01,56,8.70
2007,06,19,01,57,8.70
2007,06,19,01,58,8.60
2007,06,19,01,59,8.60
2007,06,19,02,00,8.60
2007,06,19,02,01,8.50
2007,06,19,02,02,8.50
2007,06,19,02,03,8.50
2007,06,19,02,04,8.50
2007,06,19,02,05,8.50
2007,06,19,02,06,8.50
2007,06,19,02,07,8.40
2007,06,19,02,08,8.40
2007,06,19,02,09,8.40
2007,06,19,02,10,8.40
2007,06,19,02,11,8.40
2007,06,19,02,12,8.40
2007,06,19,02,13,8.40
2007,06,19,02,14,8.40
2007,06,19,02,15,8.30
2007,06,19,02,16,8.30
2007,06,19,02,17,8.30
2007,06,19,02,18,8.20
2007,06,19,02,19,8.20
2007,06,19,02,20,8.20
2007,06,19,02,21,8.20
2007,06,19,02,22,8.20
2007,06,19,02,23,8.20
2007,06,19,02,24,8.20
2007,06,19,02,25,8.20
2007,06,19,02,26,8.20
2007,06,19,02,27,8.20
2007,06,19,02,28,8.20
2007,06,19,02,29,8.30
2007,06,19,02,30,8.30
2007,06,19,02,31,8.30
2007,06,19,02,32,8.30
2007,06,19,02,33,8.30
2007,06,19,02,34,8.20
2007,06,19,02,35,8.20
2007,06,19,02,36,8.20
2007,06,19,02,37,8.20
2007,06,19,02,38,8.20
2007,06,19,02,39,8.20
2007,06,19,02,40,8.20
2007,06,19,02,41,8.20
2007,06,19,02,42,8.20
2007,06,19,02,43,8.30
2007,06,19,02,44,8.30
2007,06,19,02,45,8.30
2007,06,19,02,46,8.40
2007,06,19,02,47,8.40
2007,06,19,02,48,8.40
2007,06,19,02,49,8.40
2007,06,19,02,50,8.50
2007,06,19,02,51,8.50
2007,06,19,02,52,8.50
2007,06,19,02,53,8.50
2007,06,19,02,54,8.50
2007,06,19,02,55,8.40
2007,06,19,02,56,8.40
2007,06,19,02,57,8.40
2007,06,19,02,58,8.40
2007,06,19,02,59,8.40
2007,06,19,03,00,8.40
2007,06,19,03,01,8.50
2007,06,19,03,02,8.50
2007,06,19,03,03,8.60
2007,06,19,03,04,8.70
2007,06,19,03,05,8.70
2007,06,19,03,06,8.80
2007,06,19,03,07,8.80
2007,06,19,03,08,8.80
2007,06,19,03,09,8.80
2007,06,19,03,10,8.80
2007,06,19,03,11,8.80
2007,06,19,03,12,8.80
2007,06,19,03,13,8.80
2007,06,19,03,14,8.80
2007,06,19,03,15,8.80
2007,06,19,03,16,8.80
2007,06,19,03,17,8.90
2007,06,19,03,18,8.90
2007,06,19,03,19,8.90
2007,06,19,03,20,8.90
2007,06,19,03,21,8.90
2007,06,19,03,22,8.80
2007,06,19,03,23,8.80
2007,06,19,03,24,8.90
2007,06,19,03,25,8.90
2007,06,19,03,26,8.90
2007,06,19,03,27,8.90
2007,06,19,03,28,8.90
2007,06,19,03,29,8.90
2007,06,19,03,30,8.90
2007,06,19,03,31,8.90
2007,06,19,03,32,8.90
2007,06,19,03,33,8.90
2007,06,19,03,34,8.90
2007,06,19,03,35,8.90
2007,06,19,03,36,8.90
2007,06,19,03,37,8.90
2007,06,19,03,38,8.90
2007,06,19,03,39,8.90
2007,06,19,03,40,8.80
2007,06,19,03,41,8.80
2007,06,19,03,42,8.70
2007,06,19,03,43,8.70
2007,06,19,03,44,8.70
2007,06,19,03,45,8.70
2007,06,19,03,46,8.70
2007,06,19,03,47,8.70
2007,06,19,03,48,8.70
2007,06,19,03,49,8.70
2007,06,19,03,50,8.70
2007,06,19,03,51,8.70
2007,06,19,03,52,8.70
2007,06,19,03,53,8.60
2007,06,19,03,54,8.60
2007,06,19,03,55,8.60
2007,06,19,03,56,8.60
2007,06,19,03,57,8.60
2007,06,19,03,58,8.60
2007,06,19,03,59,8.60
2007,06,19,04,00,8.60
2007,06,19,04,01,8.60
2007,06,19,04,02,8.60
2007,06,19,04,03,8.60
2007,06,19,04,04,8.60
2007,06,19,04,05,8.60
2007,06,19,04,06,8.50
2007,06,19,04,07,8.50
2007,06,19,04,08,8.50
2007,06,19,04,09,8.50
2007,06,19,04,10,8.50
2007,06,19,04,11,8.50
2007,06,19,04,12,8.50
2007,06,19,04,13,8.50
2007,06,19,04,14,8.60
2007,06,19,04,15,8.60
2007,06,19,04,16,8.60
2007,06,19,04,17,8.60
2007,06,19,04,18,8.60
2007,06,19,04,19,8.60
2007,06,19,04,20,8.60
2007,06,19,04,21,8.60
2007,06,19,04,22,8.60
2007,06,19,04,23,8.60
2007,06,19,04,24,8.60
2007,06,19,04,25,8.60
2007,06,19,04,26,8.60
2007,06,19,04,27,8.60
2007,06,19,04,28,8.60
2007,06,19,04,29,8.60
2007,06,19,04,30,8.60
2007,06,19,04,31,8.60
2007,06,19,04,32,8.60
2007,06,19,04,33,8.60
2007,06,19,04,34,8.60
2007,06,19,04,35,8.60
2007,06,19,04,36,8.70
2007,06,19,04,37,8.70
2007,06,19,04,38,8.70
2007,06,19,04,39,8.70
2007,06,19,04,40,8.70
2007,06,19,04,41,8.70
2007,06,19,04,42,8.70
2007,06,19,04,43,8.60
2007,06,19,04,44,8.60
2007,06,19,04,45,8.60
2007,06,19,04,46,8.50
2007,06,19,04,47,8.50
2007,06,19,04,48,8.50
2007,06,19,04,49,8.50
2007,06,19,04,50,8.50
2007,06,19,04,51,8.50
2007,06,19,04,52,8.50
2007,06,19,04,53,8.50
2007,06,19,04,54,8.50
2007,06,19,04,55,8.40
2007,06,19,04,56,8.40
2007,06,19,04,57,8.40
2007,06,19,04,58,8.30
2007,06,19,04,59,8.30
2007,06,19,05,00,8.30
2007,06,19,05,01,8.30
2007,06,19,05,02,8.30
2007,06,19,05,03,8.30
2007,06,19,05,04,8.30
2007,06,19,05,05,8.30
2007,06,19,05,06,8.30
2007,06,19,05,07,8.40
2007,06,19,05,08,8.40
2007,06,19,05,09,8.40
2007,06,19,05,10,8.40
2007,06,19,05,11,8.40
2007,06,19,05,12,8.40
2007,06,19,05,13,8.40
2007,06,19,05,14,8.40
2007,06,19,05,15,8.40
2007,06,19,05,16,8.40
2007,06,19,05,17,8.40
2007,06,19,05,18,8.40
2007,06,19,05,19,8.40
2007,06,19,05,20,8.30
2007,06,19,05,21,8.30
2007,06,19,05,22,8.30
2007,06,19,05,23,8.40
2007,06,19,05,24,8.40
2007,06,19,05,25,8.40
2007,06,19,05,26,8.40
2007,06,19,05,27,8.40
2007,06,19,05,28,8.30
2007,06,19,05,29,8.30
2007,06,19,05,30,8.30
2007,06,19,05,31,8.30
2007,06,19,05,32,8.30
2007,06,19,05,33,8.40
2007,06,19,05,34,8.40
2007,06,19,05,35,8.40
2007,06,19,05,36,8.40
2007,06,19,05,37,8.40
2007,06,19,05,38,8.40
2007,06,19,05,39,8.50
2007,06,19,05,40,8.50
2007,06,19,05,41,8.50
2007,06,19,05,42,8.50
2007,06,19,05,43,8.50
2007,06,19,05,44,8.40
2007,06,19,05,45,8.40
2007,06,19,05,46,8.40
2007,06,19,05,47,8.40
2007,06,19,05,48,8.40
2007,06,19,05,49,8.40
2007,06,19,05,50,8.40
2007,06,19,05,51,8.40
2007,06,19,05,52,8.40
2007,06,19,05,53,8.30
2007,06,19,05,54,8.30
2007,06,19,05,55,8.30
2007,06,19,05,56,8.30
2007,06,19,05,57,8.30
2007,06,19,05,58,8.30
2007,06,19,05,59,8.40
2007,06,19,06,00,8.40
2007,06,19,06,01,8.40
2007,06,19,06,02,8.40
2007,06,19,06,03,8.40
2007,06,19,06,04,8.50
2007,06,19,06,05,8.50
2007,06,19,06,06,8.50
2007,06,19,06,07,8.50
2007,06,19,06,08,8.50
2007,06,19,06,09,8.40
2007,06,19,06,10,8.40
2007,06,19,06,11,8.40
2007,06,19,06,12,8.40
2007,06,19,06,13,8.40
2007,06,19,06,14,8.40
2007,06,19,06,15,8.40
2007,06,19,06,16,8.40
2007,06,19,06,17,8.40
2007,06,19,06,18,8.40
2007,06,19,06,19,8.40
2007,06,19,06,20,8.40
2007,06,19,06,21,8.40
2007,06,19,06,22,8.40
2007,06,19,06,23,8.40
2007,06,19,06,24,8.40
2007,06,19,06,25,8.50
2007,06,19,06,26,8.50
2007,06,19,06,27,8.50
2007,06,19,06,28,8.60
2007,06,19,06,29,8.60
2007,06,19,06,30,8.60
2007,06,19,06,31,8.60
2007,06,19,06,32,8.70
2007,06,19,06,33,8.70
2007,06,19,06,34,8.70
2007,06,19,06,35,8.70
2007,06,19,06,36,8.70
2007,06,19,06,37,8.70
2007,06,19,06,38,8.70
2007,06,19,06,39,8.80
2007,06,19,06,40,8.80
2007,06,19,06,41,8.80
2007,06,19,06,42,8.80
2007,06,19,06,43,8.90
2007,06,19,06,44,8.90
2007,06,19,06,45,8.90
2007,06,19,06,46,8.90
2007,06,19,06,47,9.00
2007,06,19,06,48,9.00
2007,06,19,06,49,9.00
2007,06,19,06,50,9.00
2007,06,19,06,51,9.00
2007,06,19,06,52,9.00
2007,06,19,06,53,9.10
2007,06,19,06,54,9.10
2007,06,19,06,55,9.10
2007,06,19,06,56,9.10
2007,06,19,06,57,9.10
2007,06,19,06,58,9.10
2007,06,19,06,59,9.20
2007,06,19,07,00,9.20
2007,06,19,07,01,9.20
2007,06,19,07,02,9.20
2007,06,19,07,03,9.20
2007,06,19,07,04,9.20
2007,06,19,07,05,9.30
2007,06,19,07,06,9.30
2007,06,19,07,07,9.40
2007,06,19,07,08,9.40
2007,06,19,07,09,9.40
2007,06,19,07,10,9.50
2007,06,19,07,11,9.50
2007,06,19,07,12,9.50
2007,06,19,07,13,9.60
2007,06,19,07,14,9.60
2007,06,19,07,15,9.60
2007,06,19,07,16,9.60
2007,06,19,07,17,9.70
2007,06,19,07,18,9.70
2007,06,19,07,19,9.70
2007,06,19,07,20,9.70
2007,06,19,07,21,9.70
2007,06,19,07,22,9.70
2007,06,19,07,23,9.80
2007,06,19,07,24,9.80
2007,06,19,07,25,9.90
2007,06,19,07,26,9.90
2007,06,19,07,27,9.90
2007,06,19,07,28,9.90
2007,06,19,07,29,9.90
2007,06,19,07,30,10.00
2007,06,19,07,31,10.10
2007,06,19,07,32,10.10
2007,06,19,07,33,10.10
2007,06,19,07,34,10.10
2007,06,19,07,35,10.20
2007,06,19,07,36,10.20
2007,06,19,07,37,10.20
2007,06,19,07,38,10.30
2007,06,19,07,39,10.30
2007,06,19,07,40,10.30
2007,06,19,07,41,10.40
2007,06,19,07,42,10.40
2007,06,19,07,43,10.40
2007,06,19,07,44,10.40
2007,06,19,07,45,10.40
2007,06,19,07,46,10.60
2007,06,19,07,47,10.60
2007,06,19,07,48,10.60
2007,06,19,07,49,10.60
2007,06,19,07,50,10.70
2007,06,19,07,51,10.80
2007,06,19,07,52,10.90
2007,06,19,07,53,10.90
2007,06,19,07,54,11.00
2007,06,19,07,55,11.10
2007,06,19,07,56,11.10
2007,06,19,07,57,11.20
2007,06,19,07,58,11.20
2007,06,19,07,59,11.30
2007,06,19,08,00,11.30
2007,06,19,08,01,11.40
2007,06,19,08,02,11.40
2007,06,19,08,03,11.50
2007,06,19,08,04,11.60
2007,06,19,08,05,11.60
2007,06,19,08,06,11.70
2007,06,19,08,07,11.70
2007,06,19,08,08,11.80
2007,06,19,08,09,11.80
2007,06,19,08,10,11.80
2007,06,19,08,11,11.90
2007,06,19,08,12,12.00
2007,06,19,08,13,12.00
2007,06,19,08,14,12.10
2007,06,19,08,15,12.10
2007,06,19,08,16,12.20
2007,06,19,08,17,12.20
2007,06,19,08,18,12.20
2007,06,19,08,19,12.30
2007,06,19,08,20,12.30
2007,06,19,08,21,12.30
2007,06,19,08,22,12.30
2007,06,19,08,23,12.40
2007,06,19,08,24,12.40
2007,06,19,08,25,12.50
2007,06,19,08,26,12.50
2007,06,19,08,27,12.60
2007,06,19,08,28,12.60
2007,06,19,08,29,12.70
2007,06,19,08,30,12.70
2007,06,19,08,31,12.70
2007,06,19,08,32,12.80
2007,06,19,08,33,12.80
2007,06,19,08,34,12.80
2007,06,19,08,35,12.90
2007,06,19,08,36,12.90
2007,06,19,08,37,13.00
2007,06,19,08,38,13.00
2007,06,19,08,39,13.00
2007,06,19,08,40,13.00
2007,06,19,08,41,13.10
2007,06,19,08,42,13.10
2007,06,19,08,43,13.10
2007,06,19,08,44,13.20
2007,06,19,08,45,13.30
2007,06,19,08,46,13.30
2007,06,19,08,47,13.50
2007,06,19,08,48,13.50
2007,06,19,08,49,13.60
2007,06,19,08,50,13.70
2007,06,19,08,51,13.80
2007,06,19,08,52,13.90
2007,06,19,08,53,14.00
2007,06,19,08,54,14.10
2007,06,19,08,55,14.10
2007,06,19,08,56,14.10
2007,06,19,08,57,14.10
2007,06,19,08,58,14.10
2007,06,19,08,59,14.10
2007,06,19,09,00,14.00
2007,06,19,09,01,14.00
2007,06,19,09,02,13.90
2007,06,19,09,03,13.90
2007,06,19,09,04,14.00
2007,06,19,09,05,14.00
2007,06,19,09,06,14.00
2007,06,19,09,07,14.00
2007,06,19,09,08,14.00
2007,06,19,09,09,14.00
2007,06,19,09,10,14.00
2007,06,19,09,11,14.10
2007,06,19,09,12,14.10
2007,06,19,09,13,14.20
2007,06,19,09,14,14.20
2007,06,19,09,15,14.20
2007,06,19,09,16,14.20
2007,06,19,09,17,14.20
2007,06,19,09,18,14.20
2007,06,19,09,19,14.20
2007,06,19,09,20,14.20
2007,06,19,09,21,14.20
2007,06,19,09,22,14.20
2007,06,19,09,23,14.20
2007,06,19,09,24,14.20
2007,06,19,09,25,14.30
2007,06,19,09,26,14.40
2007,06,19,09,27,14.50
2007,06,19,09,28,14.60
2007,06,19,09,29,14.60
2007,06,19,09,30,14.60
2007,06,19,09,31,14.70
2007,06,19,09,32,14.80
2007,06,19,09,33,14.80
2007,06,19,09,34,14.80
2007,06,19,09,35,14.90
2007,06,19,09,36,15.00
2007,06,19,09,37,15.10
2007,06,19,09,38,15.20
2007,06,19,09,39,15.30
2007,06,19,09,40,15.30
2007,06,19,09,41,15.20
2007,06,19,09,42,15.20
2007,06,19,09,43,15.20
2007,06,19,09,44,15.20
2007,06,19,09,45,15.20
2007,06,19,09,46,15.20
2007,06,19,09,47,15.20
2007,06,19,09,48,15.20
2007,06,19,09,49,15.10
2007,06,19,09,50,15.20
2007,06,19,09,51,15.20
2007,06,19,09,52,15.20
2007,06,19,09,53,15.10
2007,06,19,09,54,15.10
2007,06,19,09,55,15.10
2007,06,19,09,56,15.00
2007,06,19,09,57,15.00
2007,06,19,09,58,15.00
2007,06,19,09,59,14.80
2007,06,19,10,00,14.80
2007,06,19,10,01,14.70
2007,06,19,10,02,14.60
2007,06,19,10,03,14.60
2007,06,19,10,04,14.70
2007,06,19,10,05,14.70
2007,06,19,10,06,14.70
2007,06,19,10,07,14.80
2007,06,19,10,08,14.80
2007,06,19,10,09,15.00
2007,06,19,10,10,15.00
2007,06,19,10,11,15.10
2007,06,19,10,12,15.20
2007,06,19,10,13,15.10
2007,06,19,10,14,15.10
2007,06,19,10,15,15.10
2007,06,19,10,16,15.10
2007,06,19,10,17,15.20
2007,06,19,10,18,15.20
2007,06,19,10,19,15.20
2007,06,19,10,20,15.30
2007,06,19,10,21,15.30
2007,06,19,10,22,15.30
2007,06,19,10,23,15.10
2007,06,19,10,24,15.00
2007,06,19,10,25,15.00
2007,06,19,10,26,15.10
2007,06,19,10,27,15.10
2007,06,19,10,28,15.00
2007,06,19,10,29,15.10
2007,06,19,10,30,15.20
2007,06,19,10,31,15.30
2007,06,19,10,32,15.40
2007,06,19,10,33,15.30
2007,06,19,10,34,15.20
2007,06,19,10,35,15.10
2007,06,19,10,36,15.00
2007,06,19,10,37,15.00
2007,06,19,10,38,15.00
2007,06,19,10,39,15.10
2007,06,19,10,40,15.20
2007,06,19,10,41,15.20
2007,06,19,10,42,15.30
2007,06,19,10,43,15.30
2007,06,19,10,44,15.30
2007,06,19,10,45,15.30
2007,06,19,10,46,15.30
2007,06,19,10,47,15.40
2007,06,19,10,48,15.40
2007,06,19,10,49,15.50
2007,06,19,10,50,15.60
2007,06,19,10,51,15.70
2007,06,19,10,52,15.70
2007,06,19,10,53,15.70
2007,06,19,10,54,15.80
2007,06,19,10,55,15.70
2007,06,19,10,56,15.70
2007,06,19,10,57,15.80
2007,06,19,10,58,15.80
2007,06,19,10,59,15.80
2007,06,19,11,00,15.80
2007,06,19,11,01,15.80
2007,06,19,11,02,15.80
2007,06,19,11,03,15.90
2007,06,19,11,04,15.90
2007,06,19,11,05,15.90
2007,06,19,11,06,15.80
2007,06,19,11,07,15.70
2007,06,19,11,08,15.70
2007,06,19,11,09,15.70
2007,06,19,11,10,15.80
2007,06,19,11,11,15.90
2007,06,19,11,12,16.00
2007,06,19,11,13,16.10
2007,06,19,11,14,16.00
2007,06,19,11,15,15.90
2007,06,19,11,16,15.90
2007,06,19,11,17,15.80
2007,06,19,11,18,15.80
2007,06,19,11,19,15.60
2007,06,19,11,20,15.50
2007,06,19,11,21,15.70
2007,06,19,11,22,15.60
2007,06,19,11,23,15.70
2007,06,19,11,24,15.80
2007,06,19,11,25,15.80
2007,06,19,11,26,15.90
2007,06,19,11,27,15.90
2007,06,19,11,28,15.70
2007,06,19,11,29,15.70
2007,06,19,11,30,15.70
2007,06,19,11,31,15.80
2007,06,19,11,32,15.80
2007,06,19,11,33,15.80
2007,06,19,11,34,15.80
2007,06,19,11,35,15.70
2007,06,19,11,36,15.60
2007,06,19,11,37,15.50
2007,06,19,11,38,15.70
2007,06,19,11,39,15.80
2007,06,19,11,40,16.10
2007,06,19,11,41,16.30
2007,06,19,11,42,16.30
2007,06,19,11,43,16.40
2007,06,19,11,44,16.40
2007,06,19,11,45,16.30
2007,06,19,11,46,16.20
2007,06,19,11,47,16.20
2007,06,19,11,48,16.10
2007,06,19,11,49,16.10
2007,06,19,11,50,16.10
2007,06,19,11,51,16.10
2007,06,19,11,52,16.20
2007,06,19,11,53,16.30
2007,06,19,11,54,16.30
2007,06,19,11,55,16.30
2007,06,19,11,56,16.20
2007,06,19,11,57,16.20
2007,06,19,11,58,16.10
2007,06,19,11,59,16.10
2007,06,19,12,00,16.20
2007,06,19,12,01,16.30
2007,06,19,12,02,16.30
2007,06,19,12,03,16.40
2007,06,19,12,04,16.40
2007,06,19,12,05,16.50
2007,06,19,12,06,16.60
2007,06,19,12,07,16.70
2007,06,19,12,08,16.80
2007,06,19,12,09,16.80
2007,06,19,12,10,16.90
2007,06,19,12,11,17.00
2007,06,19,12,12,17.10
2007,06,19,12,13,17.00
2007,06,19,12,14,16.90
2007,06,19,12,15,16.90
2007,06,19,12,16,16.80
2007,06,19,12,17,16.80
2007,06,19,12,18,16.90
2007,06,19,12,19,17.00
2007,06,19,12,20,16.90
2007,06,19,12,21,16.90
2007,06,19,12,22,17.10
2007,06,19,12,23,17.10
2007,06,19,12,24,17.00
2007,06,19,12,25,17.00
2007,06,19,12,26,17.00
2007,06,19,12,27,17.10
2007,06,19,12,28,17.00
2007,06,19,12,29,16.90
2007,06,19,12,30,16.90
2007,06,19,12,31,16.90
2007,06,19,12,32,16.90
2007,06,19,12,33,16.80
2007,06,19,12,34,16.90
2007,06,19,12,35,17.10
2007,06,19,12,36,17.20
2007,06,19,12,37,17.20
2007,06,19,12,38,17.10
2007,06,19,12,39,17.10
2007,06,19,12,40,17.00
2007,06,19,12,41,16.90
2007,06,19,12,42,16.70
2007,06,19,12,43,16.70
2007,06,19,12,44,16.70
2007,06,19,12,45,16.70
2007,06,19,12,46,16.70
2007,06,19,12,47,16.70
2007,06,19,12,48,16.70
2007,06,19,12,49,16.70
2007,06,19,12,50,16.80
2007,06,19,12,51,16.90
2007,06,19,12,52,17.00
2007,06,19,12,53,17.10
2007,06,19,12,54,17.20
2007,06,19,12,55,17.30
2007,06,19,12,56,17.00
2007,06,19,12,57,16.90
2007,06,19,12,58,16.80
2007,06,19,12,59,16.90
2007,06,19,13,00,17.00
2007,06,19,13,01,17.00
2007,06,19,13,02,17.30
2007,06,19,13,03,17.30
2007,06,19,13,04,17.50
2007,06,19,13,05,17.60
2007,06,19,13,06,17.70
2007,06,19,13,07,17.80
2007,06,19,13,08,17.90
2007,06,19,13,09,17.90
2007,06,19,13,10,18.00
2007,06,19,13,11,18.00
2007,06,19,13,12,17.90
2007,06,19,13,13,18.10
2007,06,19,13,14,18.20
2007,06,19,13,15,18.10
2007,06,19,13,16,18.00
2007,06,19,13,17,18.00
2007,06,19,13,18,17.90
2007,06,19,13,19,17.80
2007,06,19,13,20,17.70
2007,06,19,13,21,17.70
2007,06,19,13,22,17.70
2007,06,19,13,23,17.70
2007,06,19,13,24,17.60
2007,06,19,13,25,17.50
2007,06,19,13,26,17.50
2007,06,19,13,27,17.60
2007,06,19,13,28,17.60
2007,06,19,13,29,17.50
2007,06,19,13,30,17.40
2007,06,19,13,31,17.20
2007,06,19,13,32,17.00
2007,06,19,13,33,17.00
2007,06,19,13,34,17.00
2007,06,19,13,35,17.00
2007,06,19,13,36,17.10
2007,06,19,13,37,17.30
2007,06,19,13,38,17.40
2007,06,19,13,39,17.60
2007,06,19,13,40,17.80
2007,06,19,13,41,17.80
2007,06,19,13,42,18.00
2007,06,19,13,43,18.20
2007,06,19,13,44,18.20
2007,06,19,13,45,18.20
2007,06,19,13,46,18.20
2007,06,19,13,47,18.20
2007,06,19,13,48,18.20
2007,06,19,13,49,18.20
2007,06,19,13,50,18.40
2007,06,19,13,51,18.40
2007,06,19,13,52,18.30
2007,06,19,13,53,18.20
2007,06,19,13,54,18.20
2007,06,19,13,55,18.20
2007,06,19,13,56,18.40
2007,06,19,13,57,18.50
2007,06,19,13,58,18.60
2007,06,19,13,59,18.50
2007,06,19,14,00,18.40
2007,06,19,14,01,18.50
2007,06,19,14,02,18.50
2007,06,19,14,03,18.50
2007,06,19,14,04,18.50
2007,06,19,14,05,18.60
2007,06,19,14,06,18.70
2007,06,19,14,07,18.60
2007,06,19,14,08,18.60
2007,06,19,14,09,18.70
2007,06,19,14,10,18.70
2007,06,19,14,11,18.60
2007,06,19,14,12,18.70
2007,06,19,14,13,18.70
2007,06,19,14,14,18.70
2007,06,19,14,15,18.80
2007,06,19,14,16,18.80
2007,06,19,14,17,18.80
2007,06,19,14,18,18.90
2007,06,19,14,19,18.80
2007,06,19,14,20,18.70
2007,06,19,14,21,18.70
2007,06,19,14,22,18.80
2007,06,19,14,23,18.80
2007,06,19,14,24,18.90
2007,06,19,14,25,18.80
2007,06,19,14,26,18.60
2007,06,19,14,27,18.50
2007,06,19,14,28,18.30
2007,06,19,14,29,18.00
2007,06,19,14,30,17.70
2007,06,19,14,31,17.70
2007,06,19,14,32,17.80
2007,06,19,14,33,17.90
2007,06,19,14,34,17.90
2007,06,19,14,35,18.00
2007,06,19,14,36,18.10
2007,06,19,14,37,18.20
2007,06,19,14,38,18.30
2007,06,19,14,39,18.40
2007,06,19,14,40,18.60
2007,06,19,14,41,18.70
2007,06,19,14,42,18.80
2007,06,19,14,43,18.90
2007,06,19,14,44,18.90
2007,06,19,14,45,18.80
2007,06,19,14,46,18.90
2007,06,19,14,47,18.90
2007,06,19,14,48,18.90
2007,06,19,14,49,19.10
2007,06,19,14,50,18.90
2007,06,19,14,51,18.90
2007,06,19,14,52,18.90
2007,06,19,14,53,18.90
2007,06,19,14,54,18.90
2007,06,19,14,55,19.00
2007,06,19,14,56,19.10
2007,06,19,14,57,19.00
2007,06,19,14,58,19.00
2007,06,19,14,59,19.10
2007,06,19,15,00,19.10
2007,06,19,15,01,19.20
2007,06,19,15,02,19.10
2007,06,19,15,03,19.10
2007,06,19,15,04,19.10
2007,06,19,15,05,19.10
2007,06,19,15,06,19.10
2007,06,19,15,07,19.10
2007,06,19,15,08,19.10
2007,06,19,15,09,19.10
2007,06,19,15,10,19.10
2007,06,19,15,11,19.10
2007,06,19,15,12,19.10
2007,06,19,15,13,19.10
2007,06,19,15,14,19.20
2007,06,19,15,15,19.30
2007,06,19,15,16,19.30
2007,06,19,15,17,19.20
2007,06,19,15,18,19.10
2007,06,19,15,19,19.20
2007,06,19,15,20,19.30
2007,06,19,15,21,19.30
2007,06,19,15,22,19.30
2007,06,19,15,23,19.20
2007,06,19,15,24,19.20
2007,06,19,15,25,19.20
2007,06,19,15,26,19.20
2007,06,19,15,27,19.30
2007,06,19,15,28,19.40
2007,06,19,15,29,19.60
2007,06,19,15,30,19.70
2007,06,19,15,31,19.60
2007,06,19,15,32,19.50
2007,06,19,15,33,19.40
2007,06,19,15,34,19.10
2007,06,19,15,35,19.10
2007,06,19,15,36,19.00
2007,06,19,15,37,19.00
2007,06,19,15,38,19.10
2007,06,19,15,39,19.30
2007,06,19,15,40,19.30
2007,06,19,15,41,19.40
2007,06,19,15,42,19.40
2007,06,19,15,43,19.50
2007,06,19,15,44,19.60
2007,06,19,15,45,19.60
2007,06,19,15,46,19.50
2007,06,19,15,47,19.30
2007,06,19,15,48,19.30
2007,06,19,15,49,19.20
2007,06,19,15,50,19.10
2007,06,19,15,51,19.10
2007,06,19,15,52,18.90
2007,06,19,15,53,18.90
2007,06,19,15,54,19.00
2007,06,19,15,55,19.10
2007,06,19,15,56,19.00
2007,06,19,15,57,18.90
2007,06,19,15,58,18.90
2007,06,19,15,59,18.90
2007,06,19,16,00,18.90
2007,06,19,16,01,18.90
2007,06,19,16,02,18.90
2007,06,19,16,03,19.00
2007,06,19,16,04,19.10
2007,06,19,16,05,19.30
2007,06,19,16,06,19.40
2007,06,19,16,07,19.50
2007,06,19,16,08,19.60
2007,06,19,16,09,19.70
2007,06,19,16,10,19.70
2007,06,19,16,11,19.60
2007,06,19,16,12,19.60
2007,06,19,16,13,19.40
2007,06,19,16,14,19.50
2007,06,19,16,15,19.60
2007,06,19,16,16,19.60
2007,06,19,16,17,19.70
2007,06,19,16,18,19.80
2007,06,19,16,19,19.60
2007,06,19,16,20,19.50
2007,06,19,16,21,19.30
2007,06,19,16,22,19.20
2007,06,19,16,23,19.30
2007,06,19,16,24,19.30
2007,06,19,16,25,19.40
2007,06,19,16,26,19.50
2007,06,19,16,27,19.50
2007,06,19,16,28,19.60
2007,06,19,16,29,19.70
2007,06,19,16,30,19.70
2007,06,19,16,31,19.60
2007,06,19,16,32,19.50
2007,06,19,16,33,19.40
2007,06,19,16,34,19.40
2007,06,19,16,35,19.60
2007,06,19,16,36,19.70
2007,06,19,16,37,19.70
2007,06,19,16,38,19.80
2007,06,19,16,39,19.80
2007,06,19,16,40,19.90
2007,06,19,16,41,19.90
2007,06,19,16,42,19.90
2007,06,19,16,43,19.90
2007,06,19,16,44,19.90
2007,06,19,16,45,19.90
2007,06,19,16,46,19.80
2007,06,19,16,47,19.80
2007,06,19,16,48,19.90
2007,06,19,16,49,19.90
2007,06,19,16,50,19.90
2007,06,19,16,51,19.90
2007,06,19,16,52,19.80
2007,06,19,16,53,19.70
2007,06,19,16,54,19.60
2007,06,19,16,55,19.60
2007,06,19,16,56,19.60
2007,06,19,16,57,19.70
2007,06,19,16,58,19.80
2007,06,19,16,59,19.90
2007,06,19,17,00,19.90
2007,06,19,17,01,19.90
2007,06,19,17,02,19.90
2007,06,19,17,03,19.80
2007,06,19,17,04,19.70
2007,06,19,17,05,19.60
2007,06,19,17,06,19.50
2007,06,19,17,07,19.50
2007,06,19,17,08,19.40
2007,06,19,17,09,19.40
2007,06,19,17,10,19.40
2007,06,19,17,11,19.30
2007,06,19,17,12,19.30
2007,06,19,17,13,19.40
2007,06,19,17,14,19.50
2007,06,19,17,15,19.60
2007,06,19,17,16,19.70
2007,06,19,17,17,19.70
2007,06,19,17,18,19.70
2007,06,19,17,19,19.80
2007,06,19,17,20,19.80
2007,06,19,17,21,19.80
2007,06,19,17,22,19.90
2007,06,19,17,23,19.90
2007,06,19,17,24,19.90
2007,06,19,17,25,20.00
2007,06,19,17,26,20.10
2007,06,19,17,27,20.00
2007,06,19,17,28,19.90
2007,06,19,17,29,19.70
2007,06,19,17,30,19.60
2007,06,19,17,31,19.60
2007,06,19,17,32,19.60
2007,06,19,17,33,19.60
2007,06,19,17,34,19.60
2007,06,19,17,35,19.70
2007,06,19,17,36,19.80
2007,06,19,17,37,19.80
2007,06,19,17,38,19.90
2007,06,19,17,39,19.80